Regional Weather Roundup
Issued by NWS

Home | Current Version | Previous Version | Text Only | Print | Product List | Glossary On
Versions: 1 2 3 4 5 6 7 8 9 10 11 12 13 14 15 16 17 18 19 20 21 22 23 24 25 26 27 28 29 30 31 32 33 34 35 36 37 38 39 40 41 42 43 44 45 46 47 48 49 50
000
ASUS43 KLSX 181859
RWRMO

WEATHER SUMMARY FOR MISSOURI
NATIONAL WEATHER SERVICE SPRINGFIELD MO
200 PM CDT FRI APR 18 2014

NOTE: "FAIR" INDICATES FEW OR NO CLOUDS BELOW 12,000 FEET WITH NO
       SIGNIFICANT WEATHER AND/OR OBSTRUCTIONS TO VISIBILITY.
       CURRENT SKY AND/OR WEATHER CONDITIONS ARE NOT AVAILABLE FOR
       CHILLICOTHE AND FARMINGTON.

MOZ001>031-035>038-043-044-053-054-182000-
...NORTHERN AND WESTERN MISSOURI...

CITY           SKY/WX    TMP DP  RH WIND       PRES   REMARKS
KANSAS CTY INT MOSUNNY   64  39  39 SE10      30.26F
KANSAS C DTWN  SUNNY     66  40  38 S7        30.26F
LEE`S SUMMIT   SUNNY     64  41  42 S5        30.27F
ST JOSEPH      SUNNY     64  36  35 VRB5      30.26F
CHILLICOTHE      N/A     62  40  44 VRB3      30.30F
KIRKSVILLE     SUNNY     62  36  37 VRB7      30.31F

$$
MOZ066>068-077>081-088>096-101>105-182000-
...SOUTHWEST MISSOURI...

CITY           SKY/WX    TMP DP  RH WIND       PRES   REMARKS
SPRINGFIELD    SUNNY     68  37  32 S5        30.24F
JOPLIN         SUNNY     68  42  38 VRB7      30.24F

$$
MOZ032>034-039>042-045>050-055>058-069>072-182000-
...CENTRAL MISSOURI...

CITY           SKY/WX    TMP DP  RH WIND       PRES   REMARKS
COLUMBIA       SUNNY     66  43  43 N3        30.28F
JEFFERSON CITY SUNNY     67  42  40 VRB7      30.27F
ROLLA          SUNNY     67  42  40 MISG      30.26F
SEDALIA        SUNNY     65  41  41 SE8       30.29F
OSAGE BEACH    SUNNY     66  39  37 NE6       30.28F

$$
MOZ051-052-059>065-182000-
...EAST CENTRAL MISSOURI...

CITY           SKY/WX    TMP DP  RH WIND       PRES   REMARKS
ST LOUIS INTL  MOSUNNY   68  40  35 VRB5      30.30F
SPIRIT OF STL  SUNNY     66  42  41 CALM      30.30F
ST CHARLES     SUNNY     66  42  41 NE7       30.29F

$$
MOZ072>076-082>087-097>100-106>115-182000-
...SOUTH CENTRAL AND SOUTHEAST MISSOURI...

CITY           SKY/WX    TMP DP  RH WIND       PRES   REMARKS
CAPE GIRARDEAU SUNNY     72  42  34 VRB5      30.24F
FARMINGTON     SUNNY     68  39  34 N5        30.29F
POPLAR BLUFF   SUNNY     72  43  35 E10       30.23F
WEST PLAINS    MOSUNNY   71  40  32 NE9       30.24F

$$



USA.gov is the U.S. government's official web portal to all federal, state and local government web resources and services.